Find Starlink 3638

NORAD ID: 51786 Int'l Des: 2022-017 Owner: SPXS Country: US Constellation: starlink operational
LEOCIRCULAR

Current View

Loading 3D Globe...

About Starlink 3638

Starlink 3638 (NORAD 51786) is a starlink constellation satellite (v1.5) launched Feb 25, 2022 by SPXS of US. It operates in LEO, CIRCULAR orbit with a mass of 297.00 kg.

About Starlink 3638

Description loading...

Upcoming Passes

Passes for default location (London). Set your location on the main map for personalized predictions.

Altitude History

Loading altitude history...

Two-Line Element Set

1 51786U 22017U 26171.39509164 .00001291 00000-0 99218-4 0 9999
2 51786 53.1590 247.9413 0000895 104.1780 255.9311 15.08832911237786
Epoch: Jun 20, 2026 • Age: 40 hours

Current Status

Altitude 542.6 km
Velocity 7.60 km/s
Sub-Earth Point 39.37°N, 85.58°E
Launch Date Feb 25, 2022
Age 4.3 years
Type internet

Technical Details

Classification Payload
Mass 297.00 kg
Dry Mass 275.00 kg
Total Mass 297.00 kg
Length 0.20 m
Diameter 2.80 m
Span 9.00 m
Shape Box + pan
Manufacturer SPXS
Bus Type Starlink
Phase Status In Orbit
Owner/State SPXS/US

Most Searched